Regional Weather Roundup
Issued by NWS

Home | Current Version | Previous Version | Text Only | Print | Product List | Glossary On
Versions: 1 2 3 4 5 6 7 8 9 10 11 12 13 14 15 16 17 18 19 20 21 22 23 24 25 26 27 28 29 30 31 32 33 34 35 36 37 38 39 40 41 42 43 44 45 46 47 48 49 50
000
ASUS46 KPQR 221310
RWROR

OREGON REGIONAL WEATHER ROUNDUP
NATIONAL WEATHER SERVICE PORTLAND OR
600 AM PDT TUE JUL 22 2014

NOTE: "FAIR" INDICATES FEW OR NO CLOUDS BELOW 12,000 FEET WITH
NO SIGNIFICANT WEATHER AND/OR OBSTRUCTIONS TO VISIBILITY.

ORZ001>013-221400-
NORTHWEST OREGON


CITY           SKY/WX    TMP DP  RH WIND       PRES   REMARKS
ASTORIA        MOCLDY    55  52  89 SE6       30.02F
NEWPORT        CLOUDY    55  54  94 CALM      30.06F
PORTLAND       LGT RAIN  61  59  93 CALM      30.03R FOG
VANCOUVER WA   LGT RAIN  60  57  89 N3        30.02S
SCAPPOOSE      CLOUDY    60  56  86 CALM      30.02R
HILLSBORO      LGT RAIN  59  57  93 SE6       30.02S FOG
AURORA         LGT RAIN  59  57  93 CALM      30.04R
MCMINNVILLE    CLOUDY    60  56  86 CALM      30.03R
SALEM          LGT RAIN  60  56  86 CALM      30.02S
CORVALLIS      CLOUDY    59  54  82 NW7       30.04S
EUGENE         CLOUDY    60  55  83 SW8       30.04R
$$

ORZ021-028-221400-
SOUTHWEST OREGON


CITY           SKY/WX    TMP DP  RH WIND       PRES   REMARKS
NORTH BEND     CLOUDY    55  55 100 CALM      30.05S
BROOKINGS      FOG       55  55 100 CALM      30.05S VSB 1/4
ROSEBURG       CLOUDY    62  56  80 NW3       30.03S
SEXTON SUMMIT  CLOUDY    56  41  57 S6        30.09S
MEDFORD        CLOUDY    66  43  43 NW3       30.01S
$$

ORZ009-041-221400-
COLUMBIA GORGE


CITY           SKY/WX    TMP DP  RH WIND       PRES   REMARKS
TROUTDALE      RAIN      62  59  90 CALM      30.01S FOG
THE DALLES     CLOUDY    65  55  70 NW6       29.99R
$$

ORZ029>031-042>050-061>064-221400-
EASTERN OREGON


CITY           SKY/WX    TMP DP  RH WIND       PRES   REMARKS
REDMOND        CLOUDY    61  50  67 S6        30.05S
BEND           CLOUDY    59  52  77 SE3       30.08S
KLAMATH FALLS  MOCLDY    57  52  83 S5        30.12S
LAKEVIEW       CLEAR     45  39  81 NW5       30.20S
HERMISTON      CLOUDY    67  50  54 SW8       29.99R
PENDLETON      CLOUDY    65  48  54 CALM      30.01R
JOHN DAY       PTSUNNY   60  55  82 E5        30.11S
MEACHAM        CLOUDY    53  52  96 CALM      30.10R
LA GRANDE      CLOUDY    61  45  55 N6        30.07S
BAKER CITY     PTCLDY    54  52  93 CALM      30.10S
BURNS          CLEAR     46  44  93 NE8       30.17R
ROME             N/A     53  49  86 E5        30.17R
ONTARIO        CLEAR     63  55  75 SE3       30.09R
$$


USA.gov is the U.S. government's official web portal to all federal, state and local government web resources and services.